Regional Weather Roundup
Issued by NWS

Home | Current Version | Previous Version | Text Only | Print | Product List | Glossary On
Versions: 1 2 3 4 5 6 7 8 9 10 11 12 13 14 15 16 17 18 19 20 21 22 23 24 25 26 27 28 29 30 31 32 33 34 35 36 37 38 39 40 41 42 43 44 45 46 47 48 49 50
000
ASUS43 KDMX 191701
RWRIA

WEATHER ROUNDUP FOR IOWA
NATIONAL WEATHER SERVICE DES MOINES IA
1200 PM CDT SAT AUG 19 2017

NOTE: "FAIR" INDICATES FEW OR NO CLOUDS BELOW 12,000 FEET WITH NO
SIGNIFICANT WEATHER AND/OR OBSTRUCTIONS TO VISIBILITY.

* - THESE STATIONS ARE NOT NWS STATIONS...THUS NOT UNDER NWS
QUALITY CONTROL.  THEY ALSO DO NOT REPORT WEATHER SUCH
AS PRECIPITATION OR FOG.

IAZ001>003-012>014-020>022-031>034-043>046-191800-
   NORTHWEST IOWA

CITY           SKY/WX    TMP DP  RH WIND       PRES   REMARKS
CARROLL *      MOSUNNY   73  68  83 CALM      29.98S
CHEROKEE *     SUNNY     72  66  81 E6        29.98F
DENISON *      SUNNY     73  64  73 NE6       29.99F
LE MARS *      SUNNY     73  64  73 S6        29.97F
ORANGE CITY *  SUNNY     72  66  83 SE3       29.98F
SHELDON *      SUNNY     72  64  78 SE7       29.96F
SIOUX CITY     SUNNY     75  65  70 SE6       29.97S
SPENCER        SUNNY     73  63  70 VRB5      29.98F
STORM LAKE *     N/A     70  64  83 E5        29.99S
$$

IAZ055>058-069>071-079>083-090>094-191800-
   SOUTHWEST IOWA

CITY           SKY/WX    TMP DP  RH WIND       PRES   REMARKS
ATLANTIC *     SUNNY     77  64  65 CALM      29.97S
AUDUBON *      SUNNY     75  66  73 N3        29.99S
CLARINDA *     SUNNY     79  64  61 CALM      30.00S HX  81
COUNCIL BLFS * SUNNY     77  63  61 CALM      29.98S
CRESTON *      SUNNY     79  61  53 VRB7      30.00R HX  80
HARLAN  *      SUNNY     75  64  69 VRB3      30.01S
LAMONI         SUNNY     83  57  41 W10       29.98R HX  82
RED OAK *      SUNNY     79  64  61 CALM      29.98F HX  81
SHENANDOAH *   SUNNY     79  63  57 CALM      29.99S HX  80
$$

IAZ047>049-059>061-072>074-084-191800-
   CENTRAL IOWA

CITY           SKY/WX    TMP DP  RH WIND       PRES   REMARKS
AMES           CLOUDY    77  68  73 NE6       29.97F
ANKENY *       CLOUDY    73  66  78 CALM      29.98S
BOONE *        MOSUNNY   75  66  73 NE5       29.97F
CHARITON *     SUNNY     81  63  54 VRB7      29.97R HX  82
DES MOINES     PTSUNNY   77  64  64 NE3       29.96S
GRINNELL*      MOSUNNY   75  63  66 SE5       29.98F
KNOXVILLE *    SUNNY     79  63  57 N5        29.95S HX  80
MARSHALLTOWN   SUNNY     74  66  76 VRB6      29.97F
NEWTON *       MOSUNNY   75  64  69 S5        29.97F
PELLA *        SUNNY     80  63  56 SE3       29.98R HX  81
PERRY *        PTSUNNY   75  69  81 N5        29.98S
$$

IAZ004>006-015-016-023>025-035-036-191800-
   NORTH CENTRAL IOWA

CITY           SKY/WX    TMP DP  RH WIND       PRES   REMARKS
ALGONA *       MOSUNNY   73  64  73 SW5       29.99F
CLARION *      SUNNY     73  63  68 CALM      29.99F
ESTHERVILLE    SUNNY     71  65  81 SE5       29.98F
FORT DODGE *   PTSUNNY   72  63  73 CALM      29.99F
MASON CITY     MOSUNNY   75  61  61 SW7       30.00F
FOREST CITY *    N/A     73  61  64 SW6       29.99F
WEBSTER CITY * SUNNY     75  64  69 E6        29.96F
IOWA FALLS *     N/A     75  64  68 CALM      30.00F
$$

IAZ007>011-017>019-026>030-037>042-050>054-066-191800-
   NORTHEAST IOWA

CITY           SKY/WX    TMP DP  RH WIND       PRES   REMARKS
CEDAR RAPIDS   SUNNY     76  60  57 SE8       29.97F
CHARLES CITY * SUNNY     73  61  64 S6        30.00S
CLINTON *      SUNNY     75  62  64 NW3       30.00S
DECORAH *      SUNNY     73  57  56 S7        29.99R
DUBUQUE        SUNNY     74  59  59 VRB3      30.00F
MONTICELLO *   SUNNY     75  57  53 CALM      29.99S
OELWEIN *      SUNNY     75  61  60 SW7       30.00S
WATERLOO       SUNNY     75  58  55 S6        29.97F
$$

IAZ064-065-067-068-078-191800-
   EAST CENTRAL IOWA

CITY           SKY/WX    TMP DP  RH WIND       PRES   REMARKS
DAVENPORT      SUNNY     79  61  53 E7        30.00F HX  80
IOWA CITY      SUNNY     78  62  57 E8        29.98F HX  80
MUSCATINE *    SUNNY     79  59  50 VRB5      29.98S HX  80
QUAD CITIES    SUNNY     78  60  53 SE6       29.98S
$$

IAZ062-063-075>077-085>089-095>099-191800-
   SOUTHEAST IOWA

CITY           SKY/WX    TMP DP  RH WIND       PRES   REMARKS
BURLINGTON     SUNNY     78  65  63 E7        29.97S HX  80
FAIRFIELD *    SUNNY     82  63  51 E9        29.96F HX  83
FORT MADISON * SUNNY     79  70  73 E7        29.97S HX  81
KEOKUK *       SUNNY     79  66  65 E8        29.95F HX  81
OSKALOOSA *    PTSUNNY   79  65  60 E6        29.97S HX  81
OTTUMWA        SUNNY     81  64  56 E8        29.96S HX  82
WASHINGTON *   SUNNY     77  64  65 SE7       29.99S
$$

ABBREVIATIONS USED IN REMARKS
   TC - TEMPERATURES IN CELSIUS
  WCI - WIND CHILL INDEX
   HX - HEAT INDEX
  VSB - VISIBILITY
$$





USA.gov is the U.S. government's official web portal to all federal, state and local government web resources and services.